FW0663 Weather Reports


Display with metric or nautical units.
time (UTC)temp
F
wind
direction
speed
MPH
gust
MPH
rain 1hr
in
rain 24hr
in
rain mn
in
humidity
%
barometer
mb
20260831043015 54 99 0.0 2.0 0.00 0.00 0.00 51 1017.0
20260831041515 56 90 0.0 0.0 0.00 0.00 0.00 39 1016.9
20260831040015 57 90 0.0 0.0 0.00 0.00 0.00 44 1016.9
20260831034514 60 90 0.0 0.0 0.00 0.00 0.00 39 1016.8
20260831033027 64 215 0.0 1.0 0.00 0.00 0.00 36 1016.6
20260831031513 65 236 0.0 2.0 0.00 0.00 0.00 29 1016.5
20260831030013 67 247 0.0 2.0 0.00 0.00 0.00 24 1016.3
20260831024512 69 299 0.0 2.0 0.00 0.00 0.00 26 1016.2
20260831023018 72 307 0.0 2.0 0.00 0.00 0.00 23 1016.1
20260831021514 73 302 0.0 2.0 0.00 0.00 0.00 21 1016.1
20260831020011 76 257 0.0 3.0 0.00 0.00 0.00 20 1016.2
20260831014509 77 286 0.0 2.0 0.00 0.00 0.00 20 1016.3
20260831013008 78 271 0.0 0.0 0.00 0.00 0.00 18 1016.4
20260831011507 78 206 0.0 2.0 0.00 0.00 0.00 15 1016.4
20260831010005 78 333 2.0 4.0 0.00 0.00 0.00 14 1016.6
20260831004504 77 301 0.0 4.0 0.00 0.00 0.00 16 1016.8
20260831003002 77 302 3.0 7.0 0.00 0.00 0.00 16 1016.9
20260831001600 77 333 2.0 6.0 0.00 0.00 0.00 18 1017.0
20260831000059 78 302 3.0 7.0 0.00 0.00 0.00 15 1017.1
20260830234609 77 323 2.0 5.0 0.00 0.00 0.00 14 1017.3
20260830233055 77 355 2.0 4.0 0.00 0.00 0.00 12 1017.5
20260830231551 77 317 1.0 7.0 0.00 0.00 0.00 12 1017.8
20260830230049 76 327 4.0 7.0 0.00 0.00 0.00 10 1018.0
20260830224546 76 273 1.0 7.0 0.00 0.00 0.00 11 1018.1
20260830223043 75 331 3.0 6.0 0.00 0.00 0.00 16 1018.3
20260830221546 74 228 2.0 7.0 0.00 0.00 0.00 22 1018.4
20260830220046 74 72 0.0 6.0 0.00 0.00 0.00 22 1018.7
20260830214541 74 234 2.0 5.0 0.00 0.00 0.00 23 1018.9
20260830213043 73 75 2.0 8.0 0.00 0.00 0.00 24 1019.2
20260830211549 73 271 1.0 5.0 0.00 0.00 0.00 26 1019.4
20260830210047 71 360 2.0 10.0 0.00 0.00 0.00 27 1019.6
20260830204524 71 336 2.0 7.0 0.00 0.00 0.00 26 1019.6
20260830203037 72 319 2.0 5.0 0.00 0.00 0.00 27 1019.9
20260830201521 71 80 1.0 6.0 0.00 0.00 0.00 27 1020.0
20260830200016 69 18 2.0 5.0 0.00 0.00 0.00 33 1020.0
20260830194514 69 355 4.0 10.0 0.00 0.00 0.00 32 1020.3
20260830193017 67 143 1.0 4.0 0.00 0.00 0.00 36 1020.4
20260830191515 66 219 1.0 6.0 0.00 0.00 0.00 38 1020.6
20260830190004 65 346 3.0 9.0 0.00 0.00 0.00 41 1020.7
20260830184503 64 234 1.0 4.0 0.00 0.00 0.00 45 1020.9
20260830183101 63 334 1.0 5.0 0.00 0.00 0.00 44 1021.0
20260830181559 62 242 1.0 4.0 0.00 0.00 0.00 48 1021.2
20260830180057 61 262 2.0 5.0 0.00 0.00 0.00 48 1021.4
20260830174559 61 65 0.0 4.0 0.00 0.00 0.00 49 1021.4
20260830173051 60 113 1.0 2.0 0.00 0.00 0.00 53 1021.6
20260830171548 58 346 2.0 4.0 0.00 0.00 0.00 54 1021.7
20260830170045 57 322 0.0 2.0 0.00 0.00 0.00 56 1021.9
20260830164543 56 78 0.0 2.0 0.00 0.00 0.00 61 1022.1
20260830163039 54 335 0.0 2.0 0.00 0.00 0.00 63 1022.3
20260830161554 53 103 1.0 2.0 0.00 0.00 0.00 65 1022.5
20260830160033 51 77 0.0 4.0 0.00 0.00 0.00 68 1022.7
20260830154534 49 106 1.0 5.0 0.00 0.00 0.00 71 1022.8
20260830153027 47 88 1.0 8.0 0.00 0.00 0.00 75 1022.9
20260830151519 46 88 2.0 6.0 0.00 0.00 0.00 79 1023.0
20260830150016 44 88 1.0 5.0 0.00 0.00 0.00 80 1022.9
20260830144511 43 49 0.0 3.0 0.00 0.00 0.00 82 1023.0
20260830143014 41 124 0.0 3.0 0.00 0.00 0.00 87 1022.9
20260830141505 39 130 0.0 2.0 0.00 0.00 0.00 89 1022.7
20260830140004 37 146 0.0 1.0 0.00 0.00 0.00 90 1022.6
20260830134503 37 114 0.0 2.0 0.00 0.00 0.00 89 1022.4
20260830133001 37 120 0.0 2.0 0.00 0.00 0.00 90 1022.3
20260830131600 36 120 0.0 2.0 0.00 0.00 0.00 90 1022.3
20260830131502 36 128 0.0 2.0 0.00 0.00 0.00 90 1022.2
20260830130113 37 118 0.0 2.0 0.00 0.00 0.00 89 1022.2
20260830124558 37 117 0.0 2.0 0.00 0.00 0.00 89 1022.0
20260830123056 37 102 0.0 2.0 0.00 0.00 0.00 88 1022.1
20260830121555 37 107 0.0 2.0 0.00 0.00 0.00 88 1022.2
20260830120056 37 115 0.0 2.0 0.00 0.00 0.00 88 1022.1
20260830114610 38 123 0.0 0.0 0.00 0.00 0.00 87 1022.0
20260830113052 38 121 0.0 0.0 0.00 0.00 0.00 87 1022.0
20260830111549 38 105 0.0 2.0 0.00 0.00 0.00 87 1021.9
20260830110048 39 101 0.0 2.0 0.00 0.00 0.00 86 1021.9
20260830104545 38 117 0.0 0.0 0.00 0.00 0.00 87 1021.8
20260830103049 38 118 0.0 0.0 0.00 0.00 0.00 86 1021.7
20260830101551 38 102 0.0 0.0 0.00 0.00 0.00 86 1021.7
20260830100044 38 97 0.0 1.0 0.00 0.00 0.00 86 1021.5
20260830094542 38 108 0.0 0.0 0.00 0.00 0.00 86 1021.4
20260830093039 38 102 0.0 0.0 0.00 0.00 0.00 85 1021.3
20260830091540 39 99 0.0 0.0 0.00 0.00 0.00 85 1021.3
20260830090039 39 99 0.0 0.0 0.00 0.00 0.00 84 1021.2
20260830084535 40 84 0.0 2.0 0.00 0.00 0.00 83 1021.2
20260830083034 40 98 0.0 2.0 0.00 0.00 0.00 84 1021.1
20260830081532 40 98 0.0 2.0 0.00 0.00 0.00 83 1021.1
20260830080031 40 94 0.0 2.0 0.00 0.00 0.00 83 1021.0
20260830074532 40 103 0.0 0.0 0.00 0.00 0.00 85 1020.9
20260830073027 40 105 0.0 2.0 0.00 0.00 0.00 84 1020.8
20260830071524 40 106 0.0 2.0 0.00 0.00 0.00 84 1020.7
20260830070022 41 96 1.0 2.0 0.00 0.00 0.00 81 1020.7
20260830064524 41 108 0.0 2.0 0.00 0.00 0.00 81 1020.7
20260830063018 42 119 0.0 2.0 0.00 0.00 0.00 79 1020.7
20260830061516 43 87 0.0 2.0 0.00 0.00 0.00 78 1020.8
20260830060019 44 84 0.0 2.0 0.00 0.00 0.00 76 1020.6
20260830054515 44 106 0.0 2.0 0.00 0.00 0.00 74 1020.6
20260830053015 46 19 0.0 2.0 0.00 0.00 0.00 71 1020.5
20260830051513 46 102 0.0 0.0 0.00 0.00 0.00 71 1020.4
20260830050013 48 98 0.0 0.0 0.00 0.00 0.00 67 1020.4
20260830044516 49 76 0.0 0.0 0.00 0.00 0.00 66 1020.3